Theta_e
344 344 344 346 348 351 351 352 349 351 351 358 356 354 352 352 353 353 355 358 358 355 356 353 357 352 352 352 354 357 360 359 356 356 357 351 348 354 355 354 352 352 352
345 345 345 347 349 351 354 354 355 353 354 355 355 354 351 351 352 353 355 356 357 359 359 354 352 357 352 360 360 362 361 359 357 358 358 357 352 350 356 355 354 353 350
347 348 347 347 348 352 353 355 355 357 356 356 355 355 354 354 354 353 356 359 357 358 358 357 358 361 361 349 337 352 362 361 358 356 358 360 360 356 347 357 356 353 350
348 348 347 348 347 350 352 354 355 358 357 356 357 354 355 354 352 351 353 354 358 359 356 354 357 360 363 355 352 360 358 360 359 359 358 357 357 359 359 352 357 354 351
347 346 345 346 346 346 350 352 357 358 358 357 356 359 354 355 353 353 357 360 362 359 357 356 358 360 361 363 361 363 367 358 361 359 358 357 359 358 359 357 352 352 349
347 347 345 346 346 345 347 351 356 357 358 363 357 356 360 353 355 354 356 353 354 352 358 356 357 360 360 361 363 363 363 361 361 360 361 358 359 357 355 358 355 350 349
348 348 349 348 345 345 346 348 359 361 362 360 363 356 360 360 357 358 358 354 353 353 358 359 359 359 361 362 365 363 362 359 359 361 362 360 361 358 357 355 356 351 351
347 347 347 347 346 346 347 348 359 363 363 363 363 363 359 361 358 357 355 353 353 352 354 360 355 357 358 360 361 363 364 363 362 361 362 361 361 362 355 356 355 355 353
346 346 346 346 347 347 348 348 358 362 364 364 363 363 364 361 359 357 357 354 353 352 351 352 352 353 353 357 359 362 363 362 360 361 360 359 359 361 359 355 352 352 356
345 346 348 348 347 346 347 348 356 360 363 362 363 364 365 364 358 359 360 361 361 362 361 361 362 362 360 359 361 363 362 361 362 362 361 359 360 360 359 356 353 351 350
348 348 347 347 346 346 347 348 350 359 361 361 361 361 363 363 363 363 362 361 360 360 361 363 364 364 364 364 363 362 362 360 358 357 359 360 361 359 358 358 353 349 351
350 350 348 347 347 347 347 349 350 356 358 359 359 358 359 360 362 362 362 362 363 363 363 363 363 364 365 366 366 366 366 363 364 365 364 363 362 361 358 356 354 351 351
368 368 367 366 364 362 358 355 352 356 357 357 358 360 360 363 364 364 364 364 364 365 365 365 366 366 367 367 367 367 367 366 366 365 364 361 362 362 360 356 354 352 349
367 362 359 355 351 350 350 349 350 357 360 360 362 362 359 362 363 363 364 365 365 366 366 367 367 367 367 368 367 367 367 367 366 364 363 361 361 360 359 356 355 349 350
362 358 354 353 349 346 344 344 342 341 342 342 343 342 341 341 341 341 341 342 345 349 353 359 360 363 366 364 364 367 367 365 365 363 362 361 361 361 359 355 354 351 349
353 350 348 347 346 345 344 343 343 343 343 343 343 341 342 343 342 343 342 342 341 341 341 342 343 344 348 349 346 349 353 361 364 365 364 363 362 360 359 358 352 351 350
349 347 347 345 343 342 341 341 341 340 338 339 339 335 336 337 341 342 342 343 343 342 342 340 339 340 342 342 342 340 337 335 343 355 359 365 364 360 359 357 352 348 348
346 344 342 341 340 340 339 336 335 335 335 339 339 339 337 335 334 335 337 340 342 343 343 343 343 337 342 339 338 332 333 339 336 342 353 362 361 363 358 356 351 346 345
342 341 339 338 336 335 334 334 335 333 331 332 331 329 330 332 333 333 334 332 329 331 335 339 339 339 343 342 336 336 339 337 338 337 343 348 358 362 360 355 352 346 345
339 338 337 336 335 333 332 332 332 331 330 330 329 329 329 330 331 331 330 331 332 335 337 337 335 333 331 330 339 334 336 338 338 337 337 345 349 359 359 355 352 347 346
337 335 333 333 332 330 329 328 327 328 328 328 329 329 330 331 330 330 334 333 332 331 331 332 333 333 335 334 331 333 335 338 339 338 336 337 346 351 358 357 353 350 347
330 331 329 328 327 326 327 328 329 329 329 329 330 330 331 331 330 331 331 332 333 333 334 333 334 334 334 333 332 331 332 334 340 338 339 341 344 346 352 354 351 349 348
329 327 326 326 326 326 327 328 329 329 329 329 330 330 330 330 330 330 331 331 331 331 331 331 332 331 331 330 330 331 333 335 337 340 340 340 339 342 346 350 348 347 347
326 325 325 326 326 326 327 328 328 328 328 328 329 329 329 328 328 329 329 329 329 330 330 330 331 330 329 329 331 330 335 337 340 340 339 337 336 335 342 345 346 345 343
325 325 325 326 326 327 327 326 326 327 328 328 327 327 326 326 324 324 324 324 323 323 322 323 324 325 325 324 324 323 322 324 325 326 329 334 337 337 338 340 340 343 341
324 325 326 326 326 326 326 326 326 326 327 326 325 325 325 325 324 324 323 323 322 322 323 322 322 323 324 323 322 322 321 323 325 327 330 332 336 336 337 337 338 340 340
Wind_Speed
17 23 20 22 24 22 21 18 16 19 16 15 12 10 11 14 16 10 13 9 4 12 9 6 11 8 7 5 5 5 7 3 12 17 20 5 8 11 14 8 8 6 4
19 20 21 23 24 24 22 20 18 21 18 16 16 16 13 13 13 13 10 9 8 11 9 5 7 7 7 12 12 7 4 5 8 9 12 4 4 17 6 8 8 5 6
19 18 20 23 24 26 25 23 20 21 20 19 15 10 9 8 4 4 7 11 10 8 9 6 6 8 8 5 12 18 3 6 11 11 1 3 4 9 12 3 6 6 6
18 18 20 20 22 25 26 24 25 20 22 19 15 16 12 12 13 12 16 16 12 10 8 7 6 6 6 10 9 11 7 7 11 15 5 6 6 1 3 4 7 8 7
18 20 20 23 23 24 26 25 26 23 21 22 19 13 14 13 10 8 10 9 9 10 12 11 9 4 9 7 7 9 7 10 11 13 14 13 10 15 8 1 5 13 10
18 18 24 27 23 24 24 29 30 27 24 21 22 20 14 15 10 8 12 8 10 19 20 15 10 6 9 11 8 6 9 9 9 9 10 16 11 7 11 4 2 3 8
17 16 17 20 21 22 24 24 31 27 24 24 21 21 16 12 12 7 6 9 15 16 21 16 11 8 9 10 9 9 9 11 9 7 9 12 16 20 15 9 5 4 5
17 16 18 21 24 23 22 19 32 26 23 22 22 19 19 15 14 11 12 14 14 14 4 13 6 9 13 14 13 11 11 11 6 8 8 10 14 17 11 5 3 3 1
15 15 17 21 22 21 23 21 27 24 22 22 21 20 18 19 17 16 16 14 13 12 10 11 9 12 15 15 15 14 15 14 12 12 12 11 14 9 8 4 4 2 3
15 14 13 18 21 22 21 19 25 24 23 21 21 20 20 19 19 17 12 12 12 9 11 8 10 12 14 15 15 15 16 16 12 15 11 9 12 15 12 7 2 3 8
17 17 16 22 23 22 22 22 22 26 22 21 21 19 19 16 16 14 12 13 14 15 16 15 15 16 18 18 17 18 18 21 21 16 15 17 14 17 14 8 6 6 9
10 21 15 23 21 24 23 21 19 23 20 17 13 19 17 14 15 15 12 11 10 11 13 15 17 17 18 18 18 18 17 18 17 15 16 18 17 16 13 10 8 6 2
21 23 21 19 26 27 22 17 10 18 13 12 7 3 5 4 4 3 4 6 9 11 12 13 15 16 16 17 17 17 17 18 18 18 19 20 20 19 13 9 4 7 9
17 15 16 17 24 28 29 34 33 23 13 10 12 11 11 9 5 5 4 2 4 7 10 13 14 14 15 16 17 17 16 16 16 17 20 21 22 20 18 10 12 17 12
13 13 14 11 18 20 25 25 25 24 24 23 22 22 17 16 13 9 8 5 5 5 6 6 7 10 12 8 7 9 10 12 14 16 18 20 23 23 21 13 15 14 15
13 13 13 15 17 17 19 19 20 19 21 20 16 14 15 16 17 14 11 10 9 8 7 7 8 9 10 15 16 14 13 12 14 17 19 18 20 24 17 19 17 18 17
14 13 12 14 17 17 17 14 12 12 13 12 12 10 13 13 16 23 13 13 13 12 11 8 9 11 12 14 17 19 20 20 17 18 21 19 19 17 19 16 18 19 17
14 12 14 14 12 12 10 10 8 6 5 8 6 1 5 4 3 17 15 15 16 16 17 17 16 17 15 16 18 22 21 17 18 17 20 21 20 17 18 18 17 20 20
13 14 14 13 12 10 7 5 5 3 3 3 4 6 8 6 9 13 14 19 21 21 20 20 22 23 18 18 24 23 19 20 18 16 19 19 22 20 20 20 20 19 16
14 14 14 14 10 5 4 3 2 3 4 5 6 5 7 9 11 15 19 20 21 22 23 22 23 28 29 29 23 27 27 21 18 18 17 15 20 15 20 24 24 21 20
10 8 5 11 6 3 4 4 6 7 9 11 13 14 15 16 18 21 17 18 22 25 28 28 29 29 29 31 30 27 27 24 18 14 14 16 17 18 20 26 27 29 22
9 4 4 5 3 2 4 5 7 8 10 13 15 16 17 18 20 22 23 23 23 25 26 28 28 27 28 29 30 30 30 28 22 15 13 12 17 17 19 28 31 27 22
6 1 2 2 2 4 4 6 8 9 10 12 14 16 18 19 21 22 24 24 24 24 23 23 23 22 22 23 24 23 25 30 16 8 6 11 9 12 16 19 33 25 21
3 3 4 5 6 7 8 9 10 11 12 14 15 16 18 21 23 22 22 22 22 22 21 20 19 19 21 23 19 11 10 7 8 5 5 9 13 11 14 17 24 26 24
2 5 7 8 9 9 10 12 14 15 15 16 18 20 19 19 22 22 22 24 27 28 27 24 27 25 25 28 31 35 31 21 19 21 16 12 11 10 15 18 24 28 26
6 6 8 9 11 13 14 14 14 16 16 17 19 21 23 22 23 22 23 23 27 31 32 32 31 33 29 37 37 38 37 31 22 15 14 15 13 13 16 20 21 22 29
Wind_Direction
181 167 180 173 156 154 164 168 181 163 178 179 194 217 228 228 214 216 230 191 252 282 233 276 232 251 295 358 52 351 328 319 343 336 336 118 72 182 133 107 105 73 88
175 165 181 170 163 162 168 177 184 179 188 199 217 217 225 231 224 209 209 210 236 278 288 280 309 9 6 34 356 289 294 332 327 311 333 342 30 28 91 126 128 93 85
179 168 173 173 173 167 173 181 191 189 197 207 212 240 270 298 315 253 215 210 222 246 253 234 311 330 332 16 249 269 300 332 322 319 242 338 21 338 8 151 173 123 117
179 164 167 181 181 173 176 187 192 197 201 215 228 207 205 229 227 232 240 224 215 229 267 232 242 264 292 264 251 237 338 318 305 313 242 270 289 303 332 82 179 159 136
174 168 174 178 192 188 180 184 190 199 207 209 217 217 215 245 258 261 154 187 197 231 233 249 231 250 298 307 321 323 312 324 317 348 350 333 352 263 220 138 60 132 119
168 168 173 174 193 193 191 184 186 196 206 206 215 223 217 224 256 222 274 227 245 246 236 234 243 238 271 288 292 285 296 303 305 316 324 313 315 301 311 81 1 2 124
166 168 166 173 186 198 195 197 175 184 196 205 208 220 217 214 244 272 272 271 287 285 226 217 228 252 277 280 275 285 282 288 291 298 313 317 321 326 354 27 13 336 142
161 169 171 176 184 200 198 194 171 179 189 202 208 210 214 217 228 241 242 258 256 282 339 204 245 269 274 279 280 275 282 284 313 306 296 292 292 308 306 7 324 334 52
158 171 173 178 183 193 190 196 169 176 188 199 203 206 208 211 217 228 240 242 268 282 290 277 272 272 272 279 282 282 285 289 294 283 282 271 290 299 302 331 302 151 286
162 167 170 173 178 188 190 193 171 175 186 196 201 205 208 214 225 238 246 250 270 283 289 291 277 276 275 272 273 275 279 288 292 279 274 276 277 281 291 279 227 198 244
173 172 178 178 188 181 191 190 188 171 181 194 199 207 207 217 222 233 248 258 266 274 280 282 279 276 275 277 277 276 278 282 289 280 270 275 271 282 277 308 359 316 292
234 158 156 170 183 190 187 182 181 163 173 191 208 201 204 209 218 224 233 249 262 270 274 274 273 272 272 274 275 276 275 280 286 290 279 269 269 262 272 288 236 228 275
49 44 51 41 37 42 49 57 109 134 139 139 154 127 142 159 206 225 235 267 273 275 271 268 271 270 270 272 273 274 275 273 273 276 276 275 273 268 255 260 181 303 244
68 66 64 58 52 48 49 49 48 67 77 109 104 99 82 97 111 164 139 179 247 267 279 279 271 269 271 273 273 267 265 274 280 280 277 273 274 274 271 250 235 228 229
87 80 77 73 69 63 65 63 63 62 66 70 60 59 55 51 38 42 53 48 38 8 351 342 338 315 287 322 339 280 280 286 290 283 275 274 275 268 261 248 238 227 223
106 102 100 96 93 84 73 67 64 63 66 65 59 58 53 38 16 354 8 358 16 359 0 353 336 328 331 328 336 332 326 312 304 296 289 281 276 277 263 250 242 213 212
121 118 109 98 88 85 86 77 63 61 66 67 58 36 31 23 22 319 340 334 343 330 321 317 318 311 303 305 310 316 319 314 301 289 288 285 278 271 252 251 220 216 219
130 127 113 111 111 109 100 100 99 86 52 88 83 308 86 259 260 294 321 327 319 314 310 305 301 301 288 296 297 306 306 303 299 288 284 278 276 266 247 241 231 225 224
134 122 138 129 119 118 121 122 136 97 27 359 35 326 339 320 283 288 307 303 303 302 296 294 296 294 288 287 295 297 294 296 289 290 289 288 281 269 241 226 229 224 217
134 149 147 143 122 107 95 57 22 11 335 341 340 319 294 288 301 307 302 300 298 294 292 292 288 286 288 291 285 289 288 285 287 294 291 291 290 291 237 220 218 209 208
134 136 139 101 103 74 23 347 344 341 343 333 329 326 325 319 311 310 310 310 303 295 291 287 284 285 285 287 290 288 279 270 270 279 288 285 285 284 258 236 210 213 203
131 137 113 91 81 13 343 336 330 334 328 323 320 317 315 311 306 305 301 295 291 288 284 282 281 278 278 280 281 281 274 270 250 270 285 278 277 284 266 238 218 216 206
102 34 25 24 348 353 335 328 327 324 317 312 305 303 302 298 294 289 287 285 282 278 281 281 283 287 289 288 290 286 270 259 244 275 272 284 321 288 281 259 222 208 211
18 329 331 337 336 339 330 321 322 325 322 313 310 309 302 294 289 284 281 279 280 281 284 286 291 306 324 324 315 41 9 264 254 266 282 287 303 300 276 264 226 223 223
297 351 338 329 324 328 329 326 324 323 317 312 307 301 301 310 312 304 305 308 307 305 311 321 317 296 292 293 293 294 304 297 291 293 296 267 276 276 276 264 243 229 220
337 316 323 325 330 324 320 325 341 334 327 319 313 311 310 309 310 311 308 300 296 302 306 307 306 303 304 285 283 287 291 294 294 284 273 267 249 254 258 256 240 230 223